"Sample Date","Sample Time","Sample Value","Units","Flow Rate","Laser Status","Micron Size 0","Counts/Channel 0","Micron Size 1","Counts/Channel 1","Micron Size 2","Counts/Channel 2","Micron Size 3","Counts/Channel 3","Micron Size 4","Counts/Channel 4","Micron Size 5","Counts/Channel 5","Micron Size 6","Counts/Channel 6","Micron Size 7","Counts/Channel 7","Micron Size 8","Counts/Channel 8","Micron Size 9","Counts/Channel 9","Micron Size 10","Counts/Channel 10","Micron Size 11","Counts/Channel 11","Micron Size 12","Counts/Channel 12","Micron Size 13","Counts/Channel 13","Micron Size 14","Counts/Channel 14","Micron Size 15","Counts/Channel 15","Micron Size 16","Counts/Channel 16","Micron Size 17","Counts/Channel 17","Micron Size 18","Counts/Channel 18","Micron Size 19","Counts/Channel 19","Micron Size 20","Counts/Channel 20","Micron Size 21","Counts/Channel 21","Micron Size 22","Counts/Channel 22","Micron Size 23","Counts/Channel 23","Micron Size 24","Counts/Channel 24","Micron Size 25","Counts/Channel 25","Micron Size 26","Counts/Channel 26","Micron Size 27","Counts/Channel 27","Micron Size 28","Counts/Channel 28","Micron Size 29","Counts/Channel 29","Micron Size 30","Counts/Channel 30","Micron Size 31","Counts/Channel 31"
"03/02/08","06:00:04",21970.000,"cc",28256.459,1,0.100,19867.000,0.200,1307.000,0.300,355.000,0.500,310.000,1.000,131.000,5.000,0
"03/02/08","06:00:10",21913.000,"cc",28365.873,1,0.100,19889.000,0.200,1249.000,0.300,345.000,0.500,309.000,1.000,121.000,5.000,0
"03/02/08","06:00:16",21790.000,"cc",28337.979,1,0.100,19744.000,0.200,1272.000,0.300,322.000,0.500,336.000,1.000,116.000,5.000,0
"03/02/08","06:00:22",21503.000,"cc",28324.100,1,0.100,19557.000,0.200,1223.000,0.300,306.000,0.500,283.000,1.000,134.000,5.000,0
"03/02/08","06:00:28",21683.000,"cc",28331.914,1,0.100,19653.000,0.200,1279.000,0.300,289.000,0.500,333.000,1.000,129.000,5.000,0
"03/02/08","06:00:34",21266.000,"cc",28309.744,1,0.100,19228.000,0.200,1227.000,0.300,344.000,0.500,317.000,1.000,150.000,5.000,0
"03/02/08","06:00:40",21463.000,"cc",28304.727,1,0.100,19484.000,0.200,1243.000,0.300,289.000,0.500,295.000,1.000,152.000,5.000,0
"03/02/08","06:00:46",21199.000,"cc",28313.764,1,0.100,19185.000,0.200,1229.000,0.300,321.000,0.500,321.000,1.000,143.000,5.000,0
"03/02/08","06:00:52",21375.000,"cc",28342.107,1,0.100,19305.000,0.200,1232.000,0.300,343.000,0.500,363.000,1.000,132.000,5.000,0
"03/02/08","06:00:58",21041.000,"cc",28309.998,1,0.100,19167.000,0.200,1129.000,0.300,311.000,0.500,294.000,1.000,140.000,5.000,0
"03/02/08","06:01:04",21331.000,"cc",28298.936,1,0.100,19445.000,0.200,1154.000,0.300,302.000,0.500,305.000,1.000,125.000,5.000,0
"03/02/08","06:01:10",21190.000,"cc",28321.844,1,0.100,19270.000,0.200,1130.000,0.300,310.000,0.500,328.000,1.000,152.000,5.000,0
"03/02/08","06:01:16",21047.000,"cc",28300.723,1,0.100,19177.000,0.200,1124.000,0.300,296.000,0.500,321.000,1.000,129.000,5.000,0
"03/02/08","06:01:22",21347.000,"cc",28333.092,1,0.100,19325.000,0.200,1208.000,0.300,327.000,0.500,346.000,1.000,141.000,5.000,0
"03/02/08","06:01:28",21292.000,"cc",28316.693,1,0.100,19337.000,0.200,1201.000,0.300,310.000,0.500,327.000,1.000,117.000,5.000,0
"03/02/08","06:01:34",21435.000,"cc",28347.061,1,0.100,19510.000,0.200,1187.000,0.300,287.000,0.500,321.000,1.000,130.000,5.000,0
"03/02/08","06:01:40",21316.000,"cc",28353.824,1,0.100,19361.000,0.200,1182.000,0.300,323.000,0.500,324.000,1.000,126.000,5.000,0
"03/02/08","06:01:46",21392.000,"cc",28269.420,1,0.100,19441.000,0.200,1146.000,0.300,318.000,0.500,348.000,1.000,139.000,5.000,0
"03/02/08","06:01:52",21291.000,"cc",28285.951,1,0.100,19386.000,0.200,1125.000,0.300,301.000,0.500,336.000,1.000,143.000,5.000,0
"03/02/08","06:01:58",21251.000,"cc",28324.643,1,0.100,19338.000,0.200,1165.000,0.300,312.000,0.500,319.000,1.000,117.000,5.000,0
"03/02/08","06:02:04",21159.000,"cc",28332.311,1,0.100,19264.000,0.200,1164.000,0.300,301.000,0.500,287.000,1.000,143.000,5.000,0
"03/02/08","06:02:10",21216.000,"cc",28322.211,1,0.100,19301.000,0.200,1182.000,0.300,286.000,0.500,290.000,1.000,157.000,5.000,0
"03/02/08","06:02:16",21345.000,"cc",28380.328,1,0.100,19459.000,0.200,1093.000,0.300,314.000,0.500,346.000,1.000,133.000,5.000,0
"03/02/08","06:02:22",20919.000,"cc",28304.635,1,0.100,19026.000,0.200,1117.000,0.300,328.000,0.500,323.000,1.000,125.000,5.000,0
"03/02/08","06:02:28",21301.000,"cc",28281.102,1,0.100,19301.000,0.200,1196.000,0.300,286.000,0.500,364.000,1.000,154.000,5.000,0
"03/02/08","06:02:34",21058.000,"cc",28298.490,1,0.100,19191.000,0.200,1100.000,0.300,316.000,0.500,312.000,1.000,139.000,5.000,0
"03/02/08","06:02:40",21190.000,"cc",28349.313,1,0.100,19358.000,0.200,1092.000,0.300,306.000,0.500,290.000,1.000,144.000,5.000,0
"03/02/08","06:02:46",21327.000,"cc",28307.842,1,0.100,19409.000,0.200,1113.000,0.300,311.000,0.500,351.000,1.000,143.000,5.000,0
"03/02/08","06:02:52",20899.000,"cc",28300.645,1,0.100,19087.000,0.200,1064.000,0.300,252.000,0.500,352.000,1.000,144.000,5.000,0
"03/02/08","06:02:58",21346.000,"cc",28338.045,1,0.100,19470.000,0.200,1148.000,0.300,295.000,0.500,312.000,1.000,121.000,5.000,0
"03/02/08","06:03:04",20993.000,"cc",28267.381,1,0.100,19128.000,0.200,1093.000,0.300,315.000,0.500,327.000,1.000,130.000,5.000,0
"03/02/08","06:03:10",21017.000,"cc",28276.920,1,0.100,19135.000,0.200,1099.000,0.300,316.000,0.500,352.000,1.000,115.000,5.000,0
"03/02/08","06:03:16",20959.000,"cc",28323.981,1,0.100,19135.000,0.200,1040.000,0.300,301.000,0.500,320.000,1.000,163.000,5.000,0
"03/02/08","06:03:22",21125.000,"cc",28350.639,1,0.100,19306.000,0.200,1045.000,0.300,294.000,0.500,349.000,1.000,131.000,5.000,0
"03/02/08","06:03:28",20909.000,"cc",28316.150,1,0.100,19124.000,0.200,1022.000,0.300,307.000,0.500,329.000,1.000,127.000,5.000,0
"03/02/08","06:03:34",20706.000,"cc",28293.961,1,0.100,18876.000,0.200,1062.000,0.300,323.000,0.500,296.000,1.000,149.000,5.000,0
"03/02/08","06:03:40",20918.000,"cc",28277.770,1,0.100,19101.000,0.200,1098.000,0.300,273.000,0.500,317.000,1.000,129.000,5.000,0
"03/02/08","06:03:46",20903.000,"cc",28373.832,1,0.100,19132.000,0.200,1005.000,0.300,314.000,0.500,317.000,1.000,135.000,5.000,0
"03/02/08","06:03:52",20760.000,"cc",28339.756,1,0.100,18999.000,0.200,1032.000,0.300,293.000,0.500,306.000,1.000,130.000,5.000,0
"03/02/08","06:03:58",20732.000,"cc",28396.176,1,0.100,18946.000,0.200,1027.000,0.300,310.000,0.500,304.000,1.000,145.000,5.000,0
"03/02/08","06:04:04",20784.000,"cc",28240.580,1,0.100,19051.000,0.200,970.000,0.300,293.000,0.500,341.000,1.000,129.000,5.000,0
"03/02/08","06:04:10",20787.000,"cc",28296.023,1,0.100,19009.000,0.200,1022.000,0.300,312.000,0.500,318.000,1.000,126.000,5.000,0
"03/02/08","06:04:16",20830.000,"cc",28345.809,1,0.100,19037.000,0.200,1059.000,0.300,316.000,0.500,280.000,1.000,138.000,5.000,0
"03/02/08","06:04:22",20927.000,"cc",28342.691,1,0.100,19168.000,0.200,1020.000,0.300,293.000,0.500,333.000,1.000,113.000,5.000,0
"03/02/08","06:04:28",20655.000,"cc",28320.758,1,0.100,18939.000,0.200,989.000,0.300,279.000,0.500,315.000,1.000,133.000,5.000,0
"03/02/08","06:04:34",21131.000,"cc",28291.168,1,0.100,19372.000,0.200,1022.000,0.300,300.000,0.500,297.000,1.000,140.000,5.000,0
"03/02/08","06:04:40",20900.000,"cc",28316.910,1,0.100,19099.000,0.200,998.000,0.300,319.000,0.500,328.000,1.000,156.000,5.000,0
"03/02/08","06:04:46",21160.000,"cc",28338.731,1,0.100,19270.000,0.200,1156.000,0.300,284.000,0.500,317.000,1.000,133.000,5.000,0
"03/02/08","06:04:52",21113.000,"cc",28256.268,1,0.100,19343.000,0.200,1003.000,0.300,329.000,0.500,299.000,1.000,139.000,5.000,0
"03/02/08","06:04:58",20871.000,"cc",28273.131,1,0.100,19119.000,0.200,1003.000,0.300,299.000,0.500,334.000,1.000,116.000,5.000,0
"03/02/08","06:05:04",20964.000,"cc",28384.785,1,0.100,19143.000,0.200,1035.000,0.300,316.000,0.500,335.000,1.000,135.000,5.000,0
"03/02/08","06:05:10",20961.000,"cc",28282.215,1,0.100,19197.000,0.200,1046.000,0.300,284.000,0.500,310.000,1.000,124.000,5.000,0
"03/02/08","06:05:16",21096.000,"cc",28374.770,1,0.100,19325.000,0.200,983.000,0.300,293.000,0.500,344.000,1.000,151.000,5.000,0
"03/02/08","06:05:22",21078.000,"cc",28312.221,1,0.100,19267.000,0.200,1010.000,0.300,321.000,0.500,334.000,1.000,146.000,5.000,0
"03/02/08","06:05:28",20887.000,"cc",28280.787,1,0.100,19099.000,0.200,1016.000,0.300,298.000,0.500,329.000,1.000,145.000,5.000,0
"03/02/08","06:05:34",20867.000,"cc",28328.510,1,0.100,19008.000,0.200,1062.000,0.300,321.000,0.500,324.000,1.000,152.000,5.000,0
"03/02/08","06:05:40",20878.000,"cc",28296.881,1,0.100,19041.000,0.200,1057.000,0.300,327.000,0.500,321.000,1.000,132.000,5.000,0
"03/02/08","06:05:46",21295.000,"cc",28306.102,1,0.100,19476.000,0.200,1049.000,0.300,297.000,0.500,324.000,1.000,149.000,5.000,0
"03/02/08","06:05:52",21133.000,"cc",28364.428,1,0.100,19314.000,0.200,1065.000,0.300,308.000,0.500,313.000,1.000,133.000,5.000,0
"03/02/08","06:05:58",21232.000,"cc",28328.119,1,0.100,19423.000,0.200,1082.000,0.300,296.000,0.500,286.000,1.000,145.000,5.000,0
"03/02/08","06:06:04",20941.000,"cc",28295.270,1,0.100,19167.000,0.200,1040.000,0.300,311.000,0.500,298.000,1.000,125.000,5.000,0
"03/02/08","06:06:10",21090.000,"cc",28303.227,1,0.100,19279.000,0.200,1074.000,0.300,291.000,0.500,328.000,1.000,118.000,5.000,0
"03/02/08","06:06:16",21226.000,"cc",28324.383,1,0.100,19427.000,0.200,1043.000,0.300,309.000,0.500,332.000,1.000,115.000,5.000,0
"03/02/08","06:06:22",21320.000,"cc",28289.727,1,0.100,19479.000,0.200,1110.000,0.300,308.000,0.500,284.000,1.000,139.000,5.000,0
"03/02/08","06:06:28",21139.000,"cc",28258.922,1,0.100,19353.000,0.200,1028.000,0.300,298.000,0.500,316.000,1.000,144.000,5.000,0
"03/02/08","06:06:34",21293.000,"cc",28299.877,1,0.100,19445.000,0.200,1069.000,0.300,302.000,0.500,341.000,1.000,136.000,5.000,0
"03/02/08","06:06:40",21334.000,"cc",28345.303,1,0.100,19576.000,0.200,1008.000,0.300,300.000,0.500,338.000,1.000,112.000,5.000,0
"03/02/08","06:06:46",21364.000,"cc",28337.670,1,0.100,19539.000,0.200,1074.000,0.300,279.000,0.500,332.000,1.000,140.000,5.000,0
"03/02/08","06:06:52",21997.000,"cc",28308.055,1,0.100,20148.000,0.200,1124.000,0.300,310.000,0.500,294.000,1.000,121.000,5.000,0
"03/02/08","06:06:58",21658.000,"cc",28316.082,1,0.100,19865.000,0.200,1053.000,0.300,282.000,0.500,319.000,1.000,139.000,5.000,0
"03/02/08","06:07:04",21448.000,"cc",28293.799,1,0.100,19653.000,0.200,1066.000,0.300,331.000,0.500,273.000,1.000,125.000,5.000,0
"03/02/08","06:07:10",21692.000,"cc",28302.748,1,0.100,19784.000,0.200,1117.000,0.300,351.000,0.500,293.000,1.000,147.000,5.000,0
"03/02/08","06:07:16",22022.000,"cc",28290.525,1,0.100,20102.000,0.200,1149.000,0.300,334.000,0.500,314.000,1.000,123.000,5.000,0
"03/02/08","06:07:22",21697.000,"cc",28348.428,1,0.100,19831.000,0.200,1123.000,0.300,306.000,0.500,328.000,1.000,109.000,5.000,0
"03/02/08","06:07:28",21877.000,"cc",28284.482,1,0.100,19959.000,0.200,1116.000,0.300,317.000,0.500,350.000,1.000,135.000,5.000,0
"03/02/08","06:07:34",21695.000,"cc",28302.174,1,0.100,19836.000,0.200,1094.000,0.300,299.000,0.500,335.000,1.000,131.000,5.000,0
"03/02/08","06:07:40",21945.000,"cc",28336.191,1,0.100,20058.000,0.200,1101.000,0.300,304.000,0.500,325.000,1.000,157.000,5.000,0
"03/02/08","06:07:46",21931.000,"cc",28291.102,1,0.100,19985.000,0.200,1164.000,0.300,342.000,0.500,312.000,1.000,128.000,5.000,0
"03/02/08","06:07:52",22092.000,"cc",28384.732,1,0.100,20186.000,0.200,1102.000,0.300,307.000,0.500,344.000,1.000,153.000,5.000,0
"03/02/08","06:07:58",22250.000,"cc",28334.576,1,0.100,20344.000,0.200,1113.000,0.300,340.000,0.500,334.000,1.000,119.000,5.000,0
"03/02/08","06:08:04",21997.000,"cc",28334.023,1,0.100,20177.000,0.200,1065.000,0.300,290.000,0.500,327.000,1.000,138.000,5.000,0
"03/02/08","06:08:10",21951.000,"cc",28348.590,1,0.100,19975.000,0.200,1186.000,0.300,309.000,0.500,339.000,1.000,142.000,5.000,0
"03/02/08","06:08:16",22118.000,"cc",28345.465,1,0.100,20251.000,0.200,1059.000,0.300,341.000,0.500,335.000,1.000,132.000,5.000,0
"03/02/08","06:08:22",22154.000,"cc",28318.686,1,0.100,20255.000,0.200,1113.000,0.300,295.000,0.500,339.000,1.000,152.000,5.000,0
"03/02/08","06:08:28",22116.000,"cc",28273.551,1,0.100,20272.000,0.200,1073.000,0.300,336.000,0.500,307.000,1.000,128.000,5.000,0
"03/02/08","06:08:34",22269.000,"cc",28311.547,1,0.100,20274.000,0.200,1156.000,0.300,334.000,0.500,355.000,1.000,150.000,5.000,0
"03/02/08","06:08:40",22327.000,"cc",28309.088,1,0.100,20352.000,0.200,1177.000,0.300,337.000,0.500,299.000,1.000,162.000,5.000,0
"03/02/08","06:08:46",22574.000,"cc",28274.315,1,0.100,20650.000,0.200,1130.000,0.300,330.000,0.500,345.000,1.000,119.000,5.000,0
"03/02/08","06:08:52",22640.000,"cc",28299.734,1,0.100,20694.000,0.200,1168.000,0.300,276.000,0.500,340.000,1.000,162.000,5.000,0
"03/02/08","06:08:58",22440.000,"cc",28327.078,1,0.100,20572.000,0.200,1090.000,0.300,316.000,0.500,326.000,1.000,136.000,5.000,0
"03/02/08","06:09:04",22335.000,"cc",28312.838,1,0.100,20448.000,0.200,1132.000,0.300,309.000,0.500,329.000,1.000,117.000,5.000,0
"03/02/08","06:09:10",22414.000,"cc",28310.547,1,0.100,20515.000,0.200,1135.000,0.300,288.000,0.500,336.000,1.000,140.000,5.000,0
"03/02/08","06:09:16",22651.000,"cc",28328.969,1,0.100,20617.000,0.200,1232.000,0.300,341.000,0.500,321.000,1.000,140.000,5.000,0
"03/02/08","06:09:22",22421.000,"cc",28337.826,1,0.100,20473.000,0.200,1180.000,0.300,302.000,0.500,336.000,1.000,130.000,5.000,0
"03/02/08","06:09:28",22957.000,"cc",28337.889,1,0.100,20996.000,0.200,1173.000,0.300,331.000,0.500,330.000,1.000,127.000,5.000,0
"03/02/08","06:09:34",22830.000,"cc",28328.604,1,0.100,20848.000,0.200,1214.000,0.300,292.000,0.500,334.000,1.000,142.000,5.000,0
"03/02/08","06:09:40",22608.000,"cc",28285.668,1,0.100,20599.000,0.200,1234.000,0.300,300.000,0.500,344.000,1.000,131.000,5.000,0
"03/02/08","06:09:46",22976.000,"cc",28350.740,1,0.100,21007.000,0.200,1217.000,0.300,309.000,0.500,320.000,1.000,123.000,5.000,0
"03/02/08","06:09:52",22867.000,"cc",28303.793,1,0.100,20882.000,0.200,1173.000,0.300,371.000,0.500,308.000,1.000,133.000,5.000,0
"03/02/08","06:09:58",23032.000,"cc",28331.875,1,0.100,21057.000,0.200,1220.000,0.300,308.000,0.500,306.000,1.000,141.000,5.000,0
"03/02/08","06:10:04",22864.000,"cc",28318.584,1,0.100,20804.000,0.200,1245.000,0.300,318.000,0.500,372.000,1.000,125.000,5.000,0
"03/02/08","06:10:10",22870.000,"cc",28230.865,1,0.100,20960.000,0.200,1127.000,0.300,334.000,0.500,308.000,1.000,141.000,5.000,0
"03/02/08","06:10:16",23289.000,"cc",28339.840,1,0.100,21255.000,0.200,1205.000,0.300,341.000,0.500,339.000,1.000,149.000,5.000,0
"03/02/08","06:10:22",22824.000,"cc",28327.859,1,0.100,20861.000,0.200,1214.000,0.300,338.000,0.500,301.000,1.000,110.000,5.000,0
"03/02/08","06:10:28",23206.000,"cc",28274.469,1,0.100,21117.000,0.200,1245.000,0.300,339.000,0.500,362.000,1.000,143.000,5.000,0
"03/02/08","06:10:34",23089.000,"cc",28313.920,1,0.100,21041.000,0.200,1269.000,0.300,338.000,0.500,319.000,1.000,122.000,5.000,0
"03/02/08","06:10:40",23433.000,"cc",28350.195,1,0.100,21422.000,0.200,1220.000,0.300,302.000,0.500,364.000,1.000,125.000,5.000,0
"03/02/08","06:10:46",23118.000,"cc",28281.986,1,0.100,21114.000,0.200,1201.000,0.300,319.000,0.500,341.000,1.000,143.000,5.000,0
"03/02/08","06:10:52",23020.000,"cc",28356.904,1,0.100,20993.000,0.200,1222.000,0.300,319.000,0.500,337.000,1.000,149.000,5.000,0
"03/02/08","06:10:58",23352.000,"cc",28358.135,1,0.100,21343.000,0.200,1232.000,0.300,321.000,0.500,334.000,1.000,122.000,5.000,0
"03/02/08","06:11:04",22889.000,"cc",28309.209,1,0.100,20927.000,0.200,1177.000,0.300,353.000,0.500,324.000,1.000,108.000,5.000,0
"03/02/08","06:11:10",22973.000,"cc",28340.029,1,0.100,21009.000,0.200,1201.000,0.300,285.000,0.500,331.000,1.000,147.000,5.000,0
"03/02/08","06:11:16",22909.000,"cc",28271.908,1,0.100,20860.000,0.200,1277.000,0.300,327.000,0.500,316.000,1.000,129.000,5.000,0
"03/02/08","06:11:22",23049.000,"cc",28297.607,1,0.100,21090.000,0.200,1177.000,0.300,318.000,0.500,346.000,1.000,118.000,5.000,0
"03/02/08","06:11:28",22903.000,"cc",28278.369,1,0.100,20916.000,0.200,1212.000,0.300,318.000,0.500,343.000,1.000,114.000,5.000,0
"03/02/08","06:11:34",22872.000,"cc",28341.850,1,0.100,20938.000,0.200,1216.000,0.300,308.000,0.500,278.000,1.000,132.000,5.000,0
"03/02/08","06:11:40",22709.000,"cc",28361.356,1,0.100,20682.000,0.200,1241.000,0.300,319.000,0.500,329.000,1.000,138.000,5.000,0
"03/02/08","06:11:46",22600.000,"cc",28278.658,1,0.100,20757.000,0.200,1151.000,0.300,270.000,0.500,306.000,1.000,116.000,5.000,0
"03/02/08","06:11:52",22851.000,"cc",28316.416,1,0.100,20927.000,0.200,1158.000,0.300,290.000,0.500,338.000,1.000,138.000,5.000,0
"03/02/08","06:11:58",22778.000,"cc",28334.951,1,0.100,20811.000,0.200,1183.000,0.300,294.000,0.500,343.000,1.000,147.000,5.000,0
"03/02/08","06:12:04",22537.000,"cc",28231.820,1,0.100,20597.000,0.200,1157.000,0.300,340.000,0.500,321.000,1.000,122.000,5.000,0
"03/02/08","06:12:10",22402.000,"cc",28329.981,1,0.100,20566.000,0.200,1129.000,0.300,283.000,0.500,307.000,1.000,117.000,5.000,0
"03/02/08","06:12:16",22828.000,"cc",28356.315,1,0.100,20855.000,0.200,1156.000,0.300,340.000,0.500,333.000,1.000,144.000,5.000,0
"03/02/08","06:12:22",22366.000,"cc",28356.277,1,0.100,20406.000,0.200,1184.000,0.300,321.000,0.500,324.000,1.000,131.000,5.000,0
"03/02/08","06:12:28",22159.000,"cc",28344.106,1,0.100,20304.000,0.200,1134.000,0.300,300.000,0.500,298.000,1.000,123.000,5.000,0
"03/02/08","06:12:34",22347.000,"cc",28300.088,1,0.100,20400.000,0.200,1164.000,0.300,320.000,0.500,322.000,1.000,141.000,5.000,0
"03/02/08","06:12:40",22067.000,"cc",28305.074,1,0.100,20189.000,0.200,1127.000,0.300,299.000,0.500,313.000,1.000,139.000,5.000,0
"03/02/08","06:12:46",21870.000,"cc",28363.604,1,0.100,19948.000,0.200,1128.000,0.300,327.000,0.500,339.000,1.000,128.000,5.000,0
"03/02/08","06:12:52",22312.000,"cc",28297.291,1,0.100,20312.000,0.200,1203.000,0.300,338.000,0.500,329.000,1.000,130.000,5.000,0
"03/02/08","06:12:58",22299.000,"cc",28245.824,1,0.100,20433.000,0.200,1122.000,0.300,286.000,0.500,329.000,1.000,129.000,5.000,0
"03/02/08","06:13:04",22176.000,"cc",28357.848,1,0.100,20285.000,0.200,1155.000,0.300,292.000,0.500,328.000,1.000,116.000,5.000,0
"03/02/08","06:13:10",22117.000,"cc",28276.404,1,0.100,20183.000,0.200,1127.000,0.300,324.000,0.500,332.000,1.000,151.000,5.000,0
"03/02/08","06:13:16",22221.000,"cc",28280.268,1,0.100,20346.000,0.200,1097.000,0.300,333.000,0.500,321.000,1.000,124.000,5.000,0
"03/02/08","06:13:22",22117.000,"cc",28347.738,1,0.100,20220.000,0.200,1154.000,0.300,309.000,0.500,314.000,1.000,120.000,5.000,0
"03/02/08","06:13:28",22115.000,"cc",28363.076,1,0.100,20197.000,0.200,1108.000,0.300,308.000,0.500,349.000,1.000,153.000,5.000,0
"03/02/08","06:13:34",21994.000,"cc",28311.240,1,0.100,20123.000,0.200,1138.000,0.300,296.000,0.500,300.000,1.000,137.000,5.000,0
"03/02/08","06:13:40",21761.000,"cc",28339.057,1,0.100,19907.000,0.200,1076.000,0.300,288.000,0.500,333.000,1.000,157.000,5.000,0
"03/02/08","06:13:46",21534.000,"cc",28339.229,1,0.100,19646.000,0.200,1132.000,0.300,287.000,0.500,329.000,1.000,140.000,5.000,0
"03/02/08","06:13:52",21929.000,"cc",28308.092,1,0.100,20124.000,0.200,1075.000,0.300,298.000,0.500,311.000,1.000,121.000,5.000,0
"03/02/08","06:13:58",21899.000,"cc",28316.441,1,0.100,20081.000,0.200,1062.000,0.300,271.000,0.500,350.000,1.000,135.000,5.000,0
"03/02/08","06:14:04",21989.000,"cc",28265.938,1,0.100,20077.000,0.200,1105.000,0.300,345.000,0.500,323.000,1.000,139.000,5.000,0
"03/02/08","06:14:10",21911.000,"cc",28308.213,1,0.100,19999.000,0.200,1091.000,0.300,343.000,0.500,341.000,1.000,137.000,5.000,0
"03/02/08","06:14:16",21768.000,"cc",28342.016,1,0.100,19950.000,0.200,1100.000,0.300,315.000,0.500,286.000,1.000,117.000,5.000,0
"03/02/08","06:14:22",21869.000,"cc",28340.760,1,0.100,19965.000,0.200,1128.000,0.300,305.000,0.500,334.000,1.000,137.000,5.000,0
"03/02/08","06:14:28",21949.000,"cc",28319.459,1,0.100,20081.000,0.200,1105.000,0.300,313.000,0.500,327.000,1.000,123.000,5.000,0
"03/02/08","06:14:34",21657.000,"cc",28266.074,1,0.100,19888.000,0.200,1027.000,0.300,307.000,0.500,300.000,1.000,135.000,5.000,0
"03/02/08","06:14:40",21730.000,"cc",28354.647,1,0.100,19878.000,0.200,1062.000,0.300,319.000,0.500,334.000,1.000,137.000,5.000,0
"03/02/08","06:14:46",21583.000,"cc",28325.580,1,0.100,19729.000,0.200,1057.000,0.300,331.000,0.500,326.000,1.000,140.000,5.000,0
"03/02/08","06:14:52",21371.000,"cc",28337.074,1,0.100,19558.000,0.200,1051.000,0.300,299.000,0.500,324.000,1.000,139.000,5.000,0
"03/02/08","06:14:58",21999.000,"cc",28362.076,1,0.100,20141.000,0.200,1067.000,0.300,307.000,0.500,338.000,1.000,146.000,5.000,0
"03/02/08","06:15:04",21701.000,"cc",28306.580,1,0.100,19766.000,0.200,1125.000,0.300,300.000,0.500,357.000,1.000,153.000,5.000,0
"03/02/08","06:15:10",21811.000,"cc",28281.811,1,0.100,20011.000,0.200,1086.000,0.300,286.000,0.500,292.000,1.000,136.000,5.000,0
"03/02/08","06:15:16",21714.000,"cc",28284.840,1,0.100,19952.000,0.200,1015.000,0.300,302.000,0.500,314.000,1.000,131.000,5.000,0
"03/02/08","06:15:22",21890.000,"cc",28351.914,1,0.100,19994.000,0.200,1131.000,0.300,290.000,0.500,340.000,1.000,135.000,5.000,0
"03/02/08","06:15:28",22042.000,"cc",28339.664,1,0.100,20268.000,0.200,1029.000,0.300,277.000,0.500,314.000,1.000,154.000,5.000,0
"03/02/08","06:15:34",21774.000,"cc",28284.068,1,0.100,19982.000,0.200,1058.000,0.300,283.000,0.500,299.000,1.000,152.000,5.000,0
"03/02/08","06:15:40",21971.000,"cc",28313.119,1,0.100,20115.000,0.200,1087.000,0.300,315.000,0.500,302.000,1.000,152.000,5.000,0
"03/02/08","06:15:46",22006.000,"cc",28308.988,1,0.100,20116.000,0.200,1115.000,0.300,298.000,0.500,335.000,1.000,142.000,5.000,0
"03/02/08","06:15:52",21844.000,"cc",28326.094,1,0.100,19998.000,0.200,1087.000,0.300,322.000,0.500,303.000,1.000,134.000,5.000,0
"03/02/08","06:15:58",22059.000,"cc",28264.637,1,0.100,20236.000,0.200,1088.000,0.300,299.000,0.500,326.000,1.000,110.000,5.000,0
"03/02/08","06:16:04",21905.000,"cc",28354.451,1,0.100,20008.000,0.200,1122.000,0.300,323.000,0.500,341.000,1.000,111.000,5.000,0
"03/02/08","06:16:10",21875.000,"cc",28291.699,1,0.100,20048.000,0.200,1039.000,0.300,328.000,0.500,320.000,1.000,140.000,5.000,0
"03/02/08","06:16:16",21726.000,"cc",28401.582,1,0.100,19951.000,0.200,1038.000,0.300,297.000,0.500,300.000,1.000,140.000,5.000,0
"03/02/08","06:16:22",22174.000,"cc",28280.816,1,0.100,20229.000,0.200,1119.000,0.300,334.000,0.500,356.000,1.000,136.000,5.000,0
"03/02/08","06:16:28",22322.000,"cc",28332.285,1,0.100,20439.000,0.200,1112.000,0.300,297.000,0.500,313.000,1.000,161.000,5.000,0
"03/02/08","06:16:34",22407.000,"cc",28361.397,1,0.100,20489.000,0.200,1113.000,0.300,334.000,0.500,335.000,1.000,136.000,5.000,0
"03/02/08","06:16:40",22313.000,"cc",28230.381,1,0.100,20432.000,0.200,1114.000,0.300,296.000,0.500,336.000,1.000,135.000,5.000,0
"03/02/08","06:16:46",21988.000,"cc",28329.596,1,0.100,20139.000,0.200,1100.000,0.300,306.000,0.500,318.000,1.000,125.000,5.000,0
"03/02/08","06:16:52",22258.000,"cc",28318.940,1,0.100,20301.000,0.200,1170.000,0.300,335.000,0.500,316.000,1.000,136.000,5.000,0
"03/02/08","06:16:58",22338.000,"cc",28318.943,1,0.100,20398.000,0.200,1107.000,0.300,341.000,0.500,372.000,1.000,120.000,5.000,0
"03/02/08","06:17:04",22476.000,"cc",28249.871,1,0.100,20598.000,0.200,1096.000,0.300,319.000,0.500,327.000,1.000,136.000,5.000,0
"03/02/08","06:17:10",22363.000,"cc",28310.387,1,0.100,20491.000,0.200,1088.000,0.300,288.000,0.500,358.000,1.000,138.000,5.000,0
"03/02/08","06:17:16",22290.000,"cc",28401.981,1,0.100,20400.000,0.200,1101.000,0.300,320.000,0.500,332.000,1.000,137.000,5.000,0